This is the latest recevied weather packets stored in our database for station/object IZ2MHJ-3. If no packets are shown the sender has not sent any weather packets the latest 10 day(s).
| Time | Temp. | Humidity | Pressure | Rain* | Wind** | Luminosity | Snow |
|---|---|---|---|---|---|---|---|
| 1777953914 | 13.89° C | 64% | 1014.5 hPa | - | - | - | - |
| 1777952714 | 13.33° C | 66% | 1014.6 hPa | - | - | - | - |
| 1777951514 | 13.33° C | 65% | 1014.7 hPa | - | - | - | - |
| 1777950313 | 12.78° C | 66% | 1014.8 hPa | - | - | - | - |
| 1777949113 | 13.89° C | 64% | 1014.9 hPa | - | - | - | - |
| 1777947913 | 13.89° C | 63% | 1015 hPa | - | - | - | - |
| 1777946713 | 13.89° C | 62% | 1015.2 hPa | - | - | - | - |
| 1777945513 | 13.33° C | 63% | 1015.3 hPa | - | - | - | - |
| 1777944312 | 12.78° C | 66% | 1015.6 hPa | - | - | - | - |
| 1777943112 | 13.89° C | 60% | 1015.6 hPa | - | - | - | - |
| 1777941912 | 13.89° C | 62% | 1016 hPa | - | - | - | - |
| 1777940711 | 13.89° C | 60% | 1016.3 hPa | - | - | - | - |
| 1777939511 | 14.44° C | 59% | 1016.7 hPa | - | - | - | - |
| 1777938311 | 14.44° C | 59% | 1016.8 hPa | - | - | - | - |
| 1777937110 | 15° C | 57% | 1017 hPa | - | - | - | - |
| 1777935910 | 15° C | 57% | 1017.1 hPa | - | - | - | - |
| 1777934709 | 15° C | 57% | 1017.3 hPa | - | - | - | - |
| 1777933509 | 15° C | 57% | 1017.4 hPa | - | - | - | - |
| 1777932309 | 16.11° C | 55% | 1017.5 hPa | - | - | - | - |
| 1777931108 | 16.11° C | 55% | 1017.8 hPa | - | - | - | - |
| 1777929908 | 16.11° C | 53% | 1017.8 hPa | - | - | - | - |
| 1777928708 | 16.67° C | 54% | 1017.9 hPa | - | - | - | - |
| 1777927508 | 16.67° C | 53% | 1017.8 hPa | - | - | - | - |
| 1777926307 | 17.22° C | 52% | 1017.8 hPa | - | - | - | - |
| 1777925107 | 18.33° C | 49% | 1017.7 hPa | - | - | - | - |
* Rain since midnight (hover to see other rain measurements)
** Current wind speed in m/s (hover to see current wind gust speed)